Location: Tauranga
(37.6860°S, 176.1670°E)
Time: 09:36:53
(UTC+13:00)

Cosmos 1356 - Pass Details

Date: 24 January 2019
Orbit: 448 x 452 km, 81.1° (Epoch: 19 February)

Event Time Altitude Azimuth Distance (km) Brightness Sun altitude
Exits shadow 22:12:21 34° 90° (E) 771 4.2 -16.9°
Drops below altitude 10° 22:15:29 10° 152° (SSE) 1,610 6.4 -17.4°
Sets 22:17:41 0° 161° (SSE) 2,494 7.5 -17.7°
